Regional Weather Roundup
Issued by NWS Kansas City/Pleasant Hill, MO

Home | Current Version | Previous Version | Graphics & Text | Print | Product List | Glossary Off
Versions: 1 2 3 4 5 6 7 8 9 10 11 12 13 14 15 16 17 18 19 20 21 22 23 24 25 26 27 28 29 30 31 32 33 34 35 36 37 38 39 40 41 42 43 44 45 46 47 48 49 50

000
ASUS43 KEAX 061711
RWREAX

WEATHER ROUNDUP FOR EASTERN KANSAS AND NORTHWEST MISSOURI
NATIONAL WEATHER SERVICE KANSAS CITY/PLEASANT HILL MO
1200 PM CDT WED MAY 06 2015

KSZ040-057-103>105-MOZ028-029-037-043-061800-
...KANSAS CITY METROPOLITAN AREA...

CITY           SKY/WX    TMP DP  RH WIND       PRES   REMARKS
K.C. INTL      CLOUDY    68  59  73 S24G31    29.98R
K.C. DOWNTOWN  CLOUDY    69  58  67 S21G29    29.99R
LEES SUMMIT    CLOUDY    66  58  75 S13G21    30.00S
OLATHE - IXD   CLOUDY    66  59  78 S14       29.99R
OLATHE - OJC   LGT RAIN  66  60  81 S14       29.98S
LAWRENCE       CLOUDY    65  60  84 S13       29.97S

$$

MOZ001>008-011>017-020>025-030>033-038>040-044>046-053-054-061800-
...NORTHERN AND CENTRAL MISSOURI...

CITY           SKY/WX    TMP DP  RH WIND       PRES   REMARKS
ST. JOSEPH     CLOUDY    71  60  68 S18G29    29.95R
MOSBY          LGT RAIN  66  59  77 S12G21    30.00R
WARRENSBURG    CLOUDY    68  57  68 S15G21    30.02S
WHITEMAN AFB   PTSUNNY   69  58  69 S22G28    30.02R
CLINTON        CLOUDY    66  61  82 S15G23    30.05S HAZE
SEDALIA        CLOUDY    71  58  63 S17G32    30.05R
WARSAW         NOT AVBL
MARSHALL       CLOUDY    72  61  68 S23       30.04R
CHILLICOTHE      N/A     71  59  65 S14G22    30.01R
MOBERLY        MOSUNNY   81  55  41 S22G28    30.02F
KIRKSVILLE     PTSUNNY   76  60  57 S23G37    30.02S

$$

MOZ041-047>049-056>058-063>065-088>090-097-061800-
...EASTERN AND SOUTHERN MISSOURI...

CITY           SKY/WX    TMP DP  RH WIND       PRES   REMARKS
ST. LOUIS INTL PTSUNNY   83  55  38 S15       30.12F
SPIRIT OF STL  MOSUNNY   81  54  39 S15G22    30.09F
COLUMBIA       MOSUNNY   79  59  50 S23G32    30.05F
JEFFERSON CITY MOSUNNY   79  58  48 S20       30.05F
MEXICO         MOSUNNY   82  63  51 S20       30.07F
HANNIBAL       PTSUNNY   81  54  39 S16G24    30.07F
ROLLA          PTSUNNY   75  58  55 S14       30.08F
LEBANON        PTSUNNY   75  57  53 S12       30.10F
OSAGE BEACH    PTSUNNY   77  55  47 S12       30.08F
SPRINGFIELD    LGT RAIN  66  62  87 SE13      30.07F
BRANSON        CLOUDY    72  57  60 S3        30.10F
NEVADA         CLOUDY    68  61  77 S16G24    30.03F
JOPLIN         LGT RAIN  68  60  75 SE16      30.01S
WEST PLAINS    PTSUNNY   75  55  49 S8        30.13F

$$

IAZ060-094-KSZ022-034>040-054-083-096-NEZ052-066-093-061800-
...KANSAS...SOUTHEAST NEBRASKA AND IOWA...

CITY           SKY/WX    TMP DP  RH WIND       PRES   REMARKS
TOPEKA         LGT RAIN  64  61  90 SE10G23   29.94R
MANHATTAN      PTSUNNY   71  61  70 S35G40    29.85S
EMPORIA        CLOUDY    67  60  78 S25G32    29.92F
CHANUTE        PTSUNNY   68  61  78 S26G36    29.97R
WICHITA        CLOUDY    65  62  90 SE25G32   29.84F
OMAHA          CLOUDY    70  60  70 S21G32    29.85S
LINCOLN        LGT RAIN  66  60  81 S23G29    29.82S
FALLS CITY     PTSUNNY   70  59  68 S22G31    29.90R
LAMONI         CLOUDY    72  59  63 S21G32    29.97R
DES MOINES     CLOUDY    75  58  55 S24G31    29.95R

$$



USA.gov is the U.S. government's official web portal to all federal, state and local government web resources and services.